Temperature
18 19 20 20 19 18 17 16 15 16 16 15 14 14 16 16 16 16 15 15 15 15 14 14 13 13 13 12 12 12 11 11 11 11 11 11 11 11 12 12 12 12 12 12
19 20 20 20 19 18 18 18 17 17 17 16 17 16 16 16 16 16 16 15 15 15 14 14 14 13 13 12 12 12 11 11 11 11 11 11 11 11 11 11 11 11 12 12
17 19 20 19 19 18 18 18 18 17 16 15 15 15 16 16 16 16 16 15 15 15 15 14 14 13 13 13 12 12 11 11 11 11 11 11 11 11 11 11 11 11 11 11
16 19 19 18 19 19 19 19 18 18 16 16 17 18 18 17 17 16 16 16 15 15 15 14 14 14 13 13 12 12 11 11 11 11 11 11 11 11 11 11 11 11 11 11
15 17 18 19 21 21 20 19 18 17 17 17 18 17 17 17 17 17 16 16 15 15 15 14 14 14 13 13 12 12 12 11 11 11 11 11 11 11 11 11 11 11 11 11
15 18 19 19 21 21 20 19 19 19 17 17 17 13 15 18 17 17 16 16 16 15 15 14 14 14 13 13 12 12 12 11 11 11 11 11 10 10 10 10 10 10 11 11
16 17 16 18 21 21 19 19 21 20 20 18 17 17 19 18 17 17 16 16 16 15 15 15 14 14 13 13 12 12 11 11 11 11 11 11 11 11 10 10 10 10 10 11
14 16 17 20 20 18 19 22 22 22 21 20 20 20 19 18 18 17 17 16 16 15 15 15 14 14 14 13 13 12 12 11 11 11 11 11 11 11 11 11 11 10 10 11
15 17 20 22 22 24 23 22 22 22 22 21 20 19 19 18 18 17 17 16 16 16 15 15 15 14 14 13 13 12 12 12 11 11 11 11 11 11 11 11 11 11 11 11
17 18 21 23 23 23 23 22 22 22 22 21 20 20 19 18 18 17 17 17 16 16 16 15 15 15 14 14 13 13 12 12 12 12 11 11 11 11 11 11 11 11 11 11
19 18 21 23 23 24 23 23 22 22 22 21 21 20 19 18 18 18 17 17 17 16 16 16 15 15 15 14 14 13 13 12 12 12 12 11 11 11 11 11 11 11 11 11
17 19 19 22 23 23 23 23 22 22 22 21 21 20 20 19 18 18 18 17 17 17 16 16 16 15 15 15 14 14 13 13 12 12 12 11 11 11 11 11 11 11 11 11
17 20 21 22 22 22 22 22 22 22 21 21 21 20 20 19 19 18 18 18 17 17 17 17 16 16 16 15 15 14 14 13 13 12 12 12 11 11 11 11 11 11 11 11
18 20 20 20 20 21 21 22 22 21 21 21 20 20 20 19 19 18 18 18 18 17 17 17 17 16 16 15 15 14 14 14 13 13 12 12 12 11 11 11 11 11 11 11
16 17 17 18 19 20 20 21 21 20 20 20 20 20 19 19 19 19 18 18 18 17 17 17 17 17 16 16 15 15 15 14 13 13 13 12 12 12 12 12 11 11 11 11
14 16 17 17 17 18 18 19 19 19 19 19 19 19 19 19 19 19 19 18 18 18 18 17 17 17 17 16 16 15 15 14 14 13 13 13 12 12 12 12 12 12 12 12
13 13 13 14 14 15 16 16 17 17 18 18 19 19 19 19 19 19 19 19 18 18 18 18 17 17 17 17 16 16 15 15 14 14 13 13 13 12 12 12 12 12 12 12
11 11 11 12 12 13 14 15 15 16 16 17 18 18 19 19 19 19 19 19 18 18 18 18 18 17 17 17 16 16 16 15 15 14 14 13 13 13 13 12 12 12 12 12
11 11 11 12 12 12 13 13 14 15 15 16 17 17 18 18 19 19 19 19 18 18 18 18 18 17 17 17 16 16 16 15 15 15 14 14 13 13 13 13 12 12 12 12
10 10 10 11 11 11 12 12 13 13 14 15 15 16 17 17 18 18 18 18 18 18 18 18 18 17 17 17 16 16 16 16 15 15 15 14 14 13 13 13 13 13 13 12
8 9 9 9 9 10 10 10 11 11 12 13 13 14 15 16 16 17 17 17 18 18 18 18 18 17 17 17 17 16 16 16 15 15 15 14 14 14 13 13 13 13 13 13
8 8 8 8 8 8 8 9 9 10 10 11 11 12 13 14 15 15 16 16 16 17 17 17 17 17 17 17 16 16 16 16 15 15 15 14 14 14 13 13 13 13 13 13
7 7 7 7 7 7 7 8 8 8 8 9 9 10 10 11 12 13 14 14 15 15 16 16 17 17 17 17 16 16 16 16 15 15 15 14 14 14 13 13 13 13 13 13
7 7 6 6 6 6 7 7 7 7 7 7 7 8 9 10 11 11 11 12 13 14 15 15 16 16 16 16 16 16 16 15 15 15 15 14 14 14 13 13 13 13 13 12
6 6 6 6 6 6 6 6 6 6 6 6 6 7 7 7 8 9 10 11 12 13 13 14 14 15 15 15 15 15 15 15 15 15 14 14 14 14 13 13 13 12 12 12
6 6 6 6 6 5 5 5 5 5 5 5 6 6 6 6 7 7 8 9 10 11 11 12 13 13 14 14 14 14 14 14 14 14 14 14 13 13 13 13 12 12 12 12
6 6 6 6 6 5 5 5 5 5 5 4 5 5 5 5 6 6 7 7 8 9 9 10 11 11 12 12 12 12 13 13 13 13 13 13 13 13 13 12 12 12 12 12
Wind_Speed
6 7 6 6 7 7 6 7 7 7 7 9 11 12 10 8 7 6 5 4 3 3 3 3 2 2 2 3 3 3 4 5 6 6 7 7 8 8 8 8 9 7 8 8
3 6 5 5 7 8 7 6 7 6 7 7 7 8 8 8 8 7 6 5 4 3 3 2 3 2 1 2 2 3 4 4 5 6 7 7 7 7 8 8 8 8 8 8
3 3 1 6 8 9 7 7 8 8 8 5 6 10 11 10 9 8 6 5 5 3 3 3 3 3 2 1 1 3 3 3 4 5 6 7 7 7 7 7 7 8 8 8
1 3 3 8 6 6 7 7 8 7 7 12 10 11 10 10 10 8 7 6 4 3 2 2 2 3 2 1 2 3 3 3 4 4 5 6 6 7 6 5 6 6 7 8
3 1 6 7 3 3 3 6 7 9 9 10 6 4 3 8 9 9 8 7 5 4 3 3 3 3 4 2 2 3 2 2 2 3 4 5 6 6 5 5 6 6 6 8
3 0 4 6 3 3 3 5 6 9 11 10 10 5 7 8 9 9 8 6 5 4 3 3 3 5 5 3 2 1 1 1 1 2 3 4 4 4 4 4 5 5 7 7
3 3 7 7 1 4 2 7 4 8 11 12 12 9 6 8 9 9 8 7 6 5 4 4 5 6 5 4 3 3 2 0 1 2 2 2 3 4 4 4 5 6 6 7
5 3 7 6 6 6 10 5 4 7 9 12 10 7 7 9 10 10 8 7 7 6 5 4 6 7 6 5 5 4 2 1 1 2 2 2 3 4 4 5 5 5 5 6
8 8 8 7 10 8 7 6 5 7 8 10 9 9 9 9 10 10 10 8 7 7 6 5 6 7 7 6 5 4 3 2 1 1 1 2 3 3 3 4 4 3 4 4
4 7 7 8 8 7 7 7 6 7 9 11 11 11 11 10 10 9 9 8 7 7 7 6 7 7 8 7 6 5 4 3 3 2 1 1 2 2 2 2 2 2 2 2
4 8 7 6 7 9 7 6 5 5 9 12 13 11 12 11 11 10 9 8 7 8 8 9 8 8 8 7 7 6 5 4 3 4 3 2 1 0 1 1 2 2 1 1
5 7 4 6 6 4 5 6 6 6 6 8 11 13 12 11 11 10 10 9 8 9 9 9 8 8 8 8 8 7 5 5 4 4 4 3 3 1 2 2 1 2 3 3
6 8 4 5 6 4 3 6 5 6 7 8 8 10 12 11 10 10 10 10 11 11 10 9 9 9 9 8 8 8 7 6 5 5 5 4 4 4 3 3 3 4 4 3
9 8 5 6 6 6 4 4 3 3 4 6 7 8 8 9 9 11 12 13 12 11 10 10 10 10 10 9 9 8 8 7 7 6 6 5 5 5 4 4 3 3 5 6
12 9 5 7 9 10 8 7 5 4 4 4 4 6 8 10 11 13 13 12 11 11 10 10 11 11 9 9 10 9 7 6 6 6 6 6 5 5 5 5 5 4 3 3
8 8 11 13 14 13 12 10 7 7 6 5 5 6 9 11 12 11 11 11 11 12 12 12 12 12 10 11 10 8 7 10 9 6 5 5 5 5 5 5 5 5 5 5
9 11 13 14 14 13 12 11 9 8 8 7 7 8 8 8 9 10 10 12 14 14 14 13 13 11 11 12 11 8 7 8 11 7 6 6 6 6 6 6 6 6 7 7
7 7 7 8 9 11 13 13 13 12 10 9 9 7 6 7 10 12 12 11 11 11 12 13 12 11 11 12 11 9 8 7 7 7 7 6 6 6 6 6 7 8 6 6
9 9 10 10 10 10 11 13 14 13 13 13 11 8 7 8 10 10 10 10 12 13 13 13 15 13 12 14 13 9 9 9 8 7 7 8 7 6 6 6 7 7 7 6
9 9 10 10 11 11 12 13 14 14 14 14 14 12 10 9 8 7 7 10 12 11 11 12 13 13 13 13 15 10 11 10 9 8 7 7 7 7 7 7 7 7 7 7
8 8 9 10 10 11 11 12 13 14 15 14 14 14 13 12 9 6 5 7 8 8 9 12 12 11 11 12 15 11 11 11 10 9 8 8 8 8 8 8 8 7 7 7
5 6 7 8 9 9 9 9 11 13 14 15 15 15 15 14 13 9 6 7 8 9 7 7 8 12 14 15 11 11 12 12 10 9 9 8 8 8 8 8 8 8 7 7
4 4 5 6 6 7 8 9 10 11 12 13 14 14 14 12 9 9 10 9 9 10 7 7 10 13 16 13 10 12 12 12 11 10 10 9 9 8 8 9 8 8 7 7
3 4 5 5 5 7 8 8 9 8 9 9 10 12 12 11 10 9 9 14 16 13 7 8 11 12 14 9 9 10 11 11 10 10 10 9 8 8 8 8 8 7 8 8
3 4 5 6 5 5 6 7 8 8 8 8 9 10 9 8 8 11 12 13 17 15 8 9 10 9 7 6 7 8 9 9 9 9 9 8 8 8 8 8 8 8 7 7
4 4 4 4 4 4 4 4 5 6 6 7 8 8 8 8 9 10 10 13 15 16 12 9 9 7 4 3 4 5 6 7 8 8 8 9 9 9 8 9 10 8 8 7
5 4 4 4 4 4 4 4 4 5 5 6 8 8 8 8 8 10 11 11 12 12 11 10 10 9 7 5 4 3 3 4 4 5 6 6 7 7 8 10 8 8 7 7
Wind_Direction
223 213 182 193 200 193 182 189 200 234 226 229 210 204 203 203 205 215 231 242 246 258 267 276 274 291 313 338 346 6 22 19 9 3 7 12 15 15 16 22 27 24 27 23
279 238 207 230 226 211 215 208 215 228 251 236 189 180 192 198 197 209 222 227 236 249 254 257 241 240 277 340 352 30 36 17 8 13 15 13 13 15 20 22 21 24 26 25
302 308 11 278 242 208 213 208 191 215 231 171 170 190 196 199 200 206 209 212 219 233 239 241 228 207 208 237 35 49 40 18 10 16 18 11 14 19 19 19 23 25 24 25
36 44 248 257 263 192 204 229 209 205 192 179 191 197 198 193 191 195 197 201 210 224 234 227 203 183 167 120 74 65 46 18 6 14 15 9 14 15 13 19 25 25 24 23
90 311 287 293 276 163 184 268 219 196 189 190 171 144 234 210 188 188 194 194 197 199 191 180 176 161 133 114 90 76 50 7 348 4 13 13 11 6 8 23 29 27 25 28
99 11 264 264 269 129 92 285 252 185 182 174 142 167 239 213 188 184 184 182 181 174 163 162 170 146 131 136 131 145 218 292 329 0 19 14 6 7 14 32 35 35 36 31
164 237 267 258 191 85 110 252 256 183 180 172 180 201 207 178 178 179 181 185 175 168 173 183 170 147 143 163 190 211 209 221 5 7 21 27 19 23 32 40 42 38 37 31
156 202 266 229 151 183 219 236 220 190 184 183 198 196 178 172 176 179 183 185 177 175 192 194 175 157 162 193 213 207 190 177 4 1 21 65 48 35 39 48 50 39 37 30
185 214 240 210 204 219 190 206 217 195 194 178 175 179 179 180 181 186 188 191 187 183 193 201 191 175 180 207 203 190 181 196 204 84 58 76 78 60 43 45 56 46 46 39
230 264 257 246 246 249 215 219 219 195 184 172 178 182 183 184 188 191 194 195 192 184 191 205 206 201 199 198 190 181 190 207 197 172 145 88 77 79 73 52 56 59 62 50
265 285 305 299 258 248 245 245 229 196 184 182 180 184 187 189 194 195 197 197 189 190 200 211 207 209 209 196 182 184 199 207 199 191 180 169 150 125 152 227 206 173 186 175
251 269 245 266 283 246 225 238 226 203 195 194 187 190 190 195 198 197 198 196 195 199 205 209 204 209 210 197 185 184 197 206 203 198 194 186 183 235 305 258 268 213 202 193
288 288 252 297 341 347 250 248 232 207 199 200 202 195 192 198 201 199 200 198 200 204 207 206 203 210 210 198 187 187 195 201 201 199 196 196 197 202 238 283 280 273 256 238
349 1 11 352 332 332 328 310 275 245 225 209 203 198 196 199 201 201 205 207 206 205 206 204 204 213 211 195 189 194 197 202 197 200 201 202 206 208 207 213 243 266 261 249
1 10 358 338 354 1 357 1 3 329 296 266 229 209 204 203 208 212 213 207 201 204 208 205 209 218 207 194 193 196 195 200 201 202 203 206 208 209 210 214 219 230 241 258
338 6 18 19 13 5 3 360 345 322 304 277 260 241 225 217 216 216 211 200 195 207 211 208 214 217 200 194 195 197 201 206 196 197 203 208 211 214 217 215 216 216 222 225
20 16 9 7 3 0 359 352 340 325 316 303 279 261 245 230 225 222 219 210 208 211 209 207 214 211 197 195 195 198 198 205 204 200 206 209 211 217 220 215 216 220 226 218
27 20 9 0 358 357 357 356 352 347 336 318 308 290 262 238 232 230 226 218 215 220 218 213 211 204 199 198 198 197 195 198 197 203 210 215 218 218 217 218 220 223 230 226
17 16 13 12 9 6 3 359 352 347 346 344 336 315 280 258 247 240 229 215 214 224 229 220 212 203 203 203 197 196 196 199 202 207 210 219 223 222 218 218 220 220 217 212
14 11 11 10 11 12 8 0 356 356 355 353 351 345 332 310 289 266 238 226 226 230 227 217 211 209 208 206 198 197 200 202 204 207 208 212 218 224 224 223 221 219 215 212
12 9 8 6 4 5 4 360 360 358 357 359 358 351 339 330 322 301 269 256 261 256 242 224 216 214 210 206 199 199 202 204 206 207 208 211 216 222 225 226 226 223 218 216
0 1 360 0 1 356 354 355 358 358 359 0 360 357 352 346 340 328 296 275 285 279 255 238 228 221 213 207 201 200 204 206 208 208 209 210 213 217 222 224 225 227 223 219
338 340 342 344 344 338 344 354 357 358 357 355 355 353 348 341 339 338 325 319 315 301 276 250 242 230 217 208 205 205 207 208 209 209 211 213 213 214 218 221 222 222 222 221
321 322 323 327 340 349 345 340 342 347 346 346 349 349 347 344 342 339 326 326 330 321 296 280 262 242 223 215 208 209 210 212 212 212 211 211 210 212 215 217 219 220 220 221
297 309 317 327 331 323 316 325 334 340 343 342 341 343 346 342 335 333 335 339 342 342 331 320 308 280 244 229 218 215 213 214 214 211 211 210 211 213 214 214 215 216 216 217
273 280 283 283 282 286 300 316 323 325 331 333 333 335 338 338 338 343 345 346 350 352 352 345 340 329 313 280 248 236 227 223 221 218 216 215 215 214 215 216 215 213 212 213
273 273 279 289 288 281 283 291 298 306 313 318 320 322 328 333 339 345 349 352 354 355 355 355 355 354 353 348 331 300 272 255 238 228 224 222 221 220 219 216 214 210 207 207
Height
1550 1546 1546 1547 1549 1551 1555 1559 1565 1559 1555 1550 1547 1548 1549 1550 1550 1550 1549 1548 1547 1546 1544 1541 1539 1537 1534 1531 1529 1526 1522 1519 1516 1513 1510 1506 1503 1500 1497 1494 1491 1489 1487 1486
1549 1544 1544 1546 1545 1547 1549 1549 1550 1550 1548 1540 1541 1545 1546 1547 1548 1548 1548 1547 1546 1545 1543 1541 1539 1537 1534 1532 1529 1527 1524 1521 1518 1515 1512 1508 1505 1503 1500 1497 1495 1492 1490 1488
1559 1548 1548 1554 1543 1543 1543 1540 1542 1547 1543 1539 1542 1542 1543 1544 1545 1545 1546 1546 1545 1544 1542 1541 1539 1537 1535 1532 1530 1527 1525 1522 1519 1517 1514 1511 1508 1505 1503 1500 1498 1495 1493 1491
1561 1556 1562 1548 1532 1532 1535 1534 1534 1533 1534 1535 1536 1538 1540 1541 1542 1543 1544 1544 1544 1543 1542 1540 1539 1537 1535 1533 1530 1528 1526 1523 1521 1518 1516 1513 1511 1508 1505 1503 1501 1498 1496 1495
1565 1563 1557 1541 1531 1530 1534 1534 1529 1530 1531 1533 1535 1538 1539 1539 1540 1541 1542 1542 1542 1542 1541 1540 1538 1537 1535 1533 1531 1529 1526 1524 1522 1520 1518 1515 1513 1510 1508 1506 1504 1501 1499 1498
1563 1561 1560 1543 1529 1528 1533 1537 1525 1526 1528 1531 1535 1541 1537 1536 1538 1539 1540 1541 1541 1541 1540 1539 1538 1536 1535 1533 1531 1529 1527 1525 1523 1521 1519 1517 1515 1513 1511 1508 1506 1504 1502 1501
1562 1562 1554 1534 1529 1531 1545 1538 1523 1523 1524 1527 1529 1530 1531 1533 1535 1537 1538 1539 1540 1540 1539 1538 1537 1536 1535 1533 1531 1530 1528 1527 1525 1523 1521 1519 1517 1515 1513 1511 1509 1507 1505 1504
1563 1562 1554 1527 1528 1532 1530 1522 1521 1521 1522 1523 1525 1527 1529 1530 1532 1535 1536 1537 1538 1538 1538 1537 1537 1536 1534 1533 1531 1530 1529 1527 1526 1524 1523 1521 1519 1517 1515 1513 1511 1510 1508 1507
1545 1542 1526 1522 1521 1520 1520 1520 1520 1520 1521 1522 1523 1525 1527 1529 1531 1532 1534 1535 1536 1536 1536 1536 1536 1535 1534 1533 1531 1530 1529 1528 1527 1525 1524 1522 1521 1519 1517 1515 1514 1512 1511 1509
1532 1525 1521 1519 1519 1519 1519 1519 1518 1518 1519 1520 1521 1522 1524 1526 1528 1530 1531 1533 1534 1534 1534 1534 1534 1534 1533 1532 1531 1530 1529 1528 1527 1526 1525 1523 1522 1521 1519 1517 1516 1514 1513 1512
1527 1522 1518 1516 1516 1516 1516 1517 1517 1517 1517 1517 1518 1520 1521 1523 1525 1527 1528 1530 1531 1531 1532 1532 1532 1532 1532 1531 1530 1530 1529 1528 1527 1526 1525 1524 1523 1522 1520 1519 1517 1516 1515 1514
1529 1521 1520 1517 1515 1515 1514 1514 1514 1514 1514 1515 1516 1517 1519 1520 1522 1524 1525 1527 1528 1528 1529 1529 1530 1530 1530 1529 1529 1528 1528 1527 1526 1526 1525 1524 1523 1522 1521 1520 1519 1517 1516 1515
1524 1519 1518 1517 1515 1514 1513 1512 1512 1512 1512 1513 1513 1515 1516 1517 1519 1520 1521 1523 1524 1525 1526 1526 1527 1527 1527 1527 1527 1526 1526 1525 1525 1525 1524 1523 1523 1522 1521 1521 1519 1518 1517 1516
1522 1518 1516 1516 1515 1513 1512 1511 1510 1510 1510 1510 1511 1511 1512 1513 1515 1516 1517 1518 1520 1521 1522 1523 1523 1523 1524 1524 1524 1524 1523 1523 1523 1523 1522 1522 1522 1521 1520 1520 1519 1518 1517 1516
1521 1520 1519 1516 1514 1512 1510 1509 1508 1508 1508 1507 1508 1508 1508 1509 1510 1511 1512 1514 1515 1516 1517 1518 1519 1520 1521 1521 1521 1521 1521 1520 1520 1520 1520 1520 1520 1520 1519 1519 1518 1517 1517 1516
1521 1519 1517 1514 1512 1511 1509 1508 1507 1506 1505 1504 1504 1504 1504 1504 1505 1506 1507 1508 1509 1510 1511 1513 1514 1515 1516 1517 1517 1517 1517 1517 1517 1517 1517 1517 1517 1517 1517 1516 1516 1516 1515 1515
1519 1517 1515 1514 1512 1511 1509 1508 1506 1504 1503 1501 1500 1499 1499 1499 1499 1499 1501 1502 1503 1504 1505 1507 1508 1510 1511 1512 1512 1512 1513 1513 1513 1513 1513 1513 1513 1513 1513 1513 1513 1513 1513 1513
1523 1521 1519 1517 1514 1512 1509 1507 1504 1502 1500 1498 1496 1495 1494 1493 1492 1493 1494 1495 1496 1497 1498 1500 1502 1504 1505 1506 1507 1507 1508 1508 1508 1509 1509 1509 1509 1509 1509 1509 1510 1510 1510 1510
1523 1521 1519 1517 1514 1512 1509 1506 1503 1500 1498 1495 1492 1490 1489 1488 1487 1487 1487 1488 1488 1489 1490 1493 1495 1496 1497 1499 1500 1501 1502 1502 1503 1503 1504 1504 1504 1505 1505 1505 1505 1505 1506 1506
1523 1521 1519 1517 1514 1511 1507 1504 1502 1498 1495 1492 1489 1486 1484 1483 1482 1481 1480 1480 1480 1481 1483 1485 1487 1488 1489 1491 1493 1494 1495 1496 1496 1497 1498 1498 1499 1499 1499 1500 1500 1500 1501 1501
1522 1520 1518 1516 1513 1510 1507 1504 1500 1497 1494 1490 1487 1484 1481 1479 1477 1476 1474 1473 1474 1475 1475 1477 1478 1479 1481 1483 1485 1485 1487 1488 1489 1490 1491 1491 1492 1493 1493 1494 1494 1495 1495 1496
1520 1518 1516 1514 1511 1509 1506 1503 1500 1496 1492 1489 1485 1482 1479 1475 1473 1471 1470 1469 1468 1468 1468 1468 1469 1471 1472 1474 1475 1477 1478 1480 1481 1482 1483 1484 1485 1485 1486 1487 1488 1488 1489 1490
1518 1517 1515 1512 1510 1507 1505 1501 1498 1495 1491 1488 1484 1480 1477 1474 1471 1468 1465 1464 1462 1462 1461 1461 1461 1462 1464 1465 1466 1468 1469 1471 1472 1474 1475 1476 1477 1478 1479 1480 1480 1481 1482 1483
1516 1514 1512 1510 1508 1505 1502 1499 1496 1493 1491 1487 1484 1480 1476 1472 1468 1466 1463 1460 1458 1456 1454 1454 1454 1454 1455 1456 1457 1459 1460 1462 1464 1465 1467 1468 1469 1470 1471 1472 1473 1474 1475 1476
1513 1511 1510 1507 1505 1503 1500 1497 1494 1491 1488 1485 1482 1478 1475 1471 1467 1463 1459 1456 1453 1451 1449 1448 1447 1447 1447 1448 1449 1450 1452 1453 1455 1457 1458 1460 1461 1462 1463 1464 1465 1466 1467 1468
1510 1508 1507 1505 1503 1501 1498 1495 1492 1489 1486 1482 1479 1476 1472 1469 1465 1462 1458 1454 1451 1448 1445 1443 1441 1441 1440 1441 1442 1443 1444 1446 1447 1448 1450 1451 1452 1454 1455 1456 1457 1459 1460 1461
1506 1505 1504 1502 1500 1498 1495 1493 1490 1487 1484 1481 1477 1474 1471 1467 1463 1460 1456 1453 1449 1446 1443 1440 1438 1436 1435 1435 1435 1436 1437 1438 1439 1440 1441 1443 1444 1445 1447 1448 1450 1451 1452 1453